Change the Weather History Date:

Thursday, October 16, 2014

  Actual Average Record
Temperature  
Mean Temperature 48 °F 48 °F  
Max Temperature 57 °F 58 °F 79 °F (1927)
Min Temperature 39 °F 37 °F 18 °F (1999)
Degree Days  
Heating Degree Days 17 18  
Month to date heating degree days 139 230  
Since 1 July heating degree days 245 478  
Cooling Degree Days 0 0  
Month to date cooling degree days 1 0  
Year to date cooling degree days 654 449  
Moisture  
Dew Point 40 °F    
Average Humidity 72    
Maximum Humidity 92    
Minimum Humidity 51    
Precipitation  
Precipitation 0.00 in 0.04 in 0.87 in (1947)
Month to date precipitation 0.30 0.45  
Year to date precipitation 10.56 11.23  
Snow  
Snow 0.00 in 0.00 in T in (1993)
Month to date snowfall 0.0 0.0  
Since 1 July snowfall 0.0 0.0  
Since 1 September snowfall 0.0 0.0  
Snow Depth 0.00 in    
Sea Level Pressure  
Sea Level Pressure 30.09 in    
Wind  
Wind Speed 6 mph (East)    
Max Wind Speed 13 mph    
Max Gust Speed 16 mph    
Visibility 10 miles    
Events      
T = Trace of Precipitation, MM = Missing Value Source: NWS Daily Summary

Daily Weather History Graph

Daily Weather History Graph

Search for Another Location

Airport or City:

Trip Planner

Search our weather history database for the weather conditions in past years. The results will help you decide how hot, cold, wet, or windy it might be!

Date:

Astronomy

Oct. 16, 2014 Rise Set
Actual Time 7:10 AM PDT 5:59 PM PDT
Civil Twilight 6:39 AM PDT 6:31 PM PDT
Nautical Twilight 6:03 AM PDT 7:06 PM PDT
Astronomical Twilight 5:27 AM PDT 7:42 PM PDT
Moon No Moon Rise 2:38 PM PDT (10/16)
Length of Visible Light 11h 51m
Length of Day
10h 49m
Last Quarter, 41% of the Moon is Illuminated
Oct 16
Last Quarter
Oct 23
New
Oct 30
First Quarter
Nov 6
Full
Nov 14
Last Quarter

Hourly Weather History & Observations

Time (PDT) Temp. Windchill Dew Point Humidity Pressure Visibility Wind Dir Wind Speed Gust Speed Precip Events Conditions
12:53 AM 44.1 °F 38.1 °F 39.0 °F 82% 30.06 in 10.0 mi South 11.5 mph - N/A   Clear
1:53 AM 42.8 °F 38.0 °F 39.2 °F 87% 30.05 in 10.0 mi South 8.1 mph - N/A   Clear
2:53 AM 42.1 °F 37.7 °F 37.9 °F 85% 30.09 in 10.0 mi South 6.9 mph - N/A   Partly Cloudy
3:53 AM 41.0 °F 36.4 °F 37.9 °F 89% 30.09 in 10.0 mi SSE 6.9 mph - N/A   Clear
4:53 AM 41.0 °F 36.4 °F 37.4 °F 87% 30.08 in 10.0 mi SSE 6.9 mph - N/A   Scattered Clouds
5:53 AM 39.9 °F 37.8 °F 37.9 °F 93% 30.11 in 10.0 mi ESE 3.5 mph - N/A   Partly Cloudy
6:53 AM 39.0 °F 34.0 °F 37.0 °F 93% 30.12 in 10.0 mi SSE 6.9 mph - N/A   Scattered Clouds
7:53 AM 42.1 °F 38.4 °F 37.9 °F 85% 30.12 in 10.0 mi SE 5.8 mph - N/A   Mostly Cloudy
8:53 AM 44.1 °F 40.8 °F 39.0 °F 82% 30.13 in 10.0 mi NE 5.8 mph - N/A   Overcast
9:53 AM 45.0 °F 42.6 °F 39.9 °F 82% 30.14 in 10.0 mi NE 4.6 mph - N/A   Overcast
10:53 AM 46.9 °F - 41.0 °F 80% 30.14 in 10.0 mi ENE 3.5 mph - N/A   Overcast
11:53 AM 48.0 °F - 42.1 °F 80% 30.15 in 10.0 mi NE 4.6 mph - N/A   Overcast
12:53 PM 51.1 °F - 42.1 °F 71% 30.14 in 10.0 mi NE 3.5 mph - N/A   Overcast
1:53 PM 54.0 °F - 43.0 °F 66% 30.12 in 10.0 mi NNE 4.6 mph - N/A   Mostly Cloudy
2:53 PM 55.9 °F - 42.1 °F 60% 30.10 in 10.0 mi ENE 5.8 mph - N/A   Mostly Cloudy
3:53 PM 57.0 °F - 41.0 °F 55% 30.09 in 10.0 mi NE 8.1 mph - N/A   Scattered Clouds
4:53 PM 57.0 °F - 39.0 °F 51% 30.08 in 10.0 mi ENE 6.9 mph - N/A   Partly Cloudy
5:53 PM 55.0 °F - 39.0 °F 55% 30.07 in 10.0 mi ENE 6.9 mph - N/A   Partly Cloudy
6:53 PM 51.1 °F - 39.9 °F 66% 30.08 in 10.0 mi Calm Calm - N/A   Partly Cloudy
7:53 PM 51.8 °F - 39.2 °F 62% 30.05 in 10.0 mi ENE 8.1 mph - N/A   Clear
8:53 PM 48.9 °F - 39.9 °F 71% 30.07 in 10.0 mi ENE 6.9 mph - N/A   Clear
9:53 PM 46.9 °F - 39.9 °F 77% 30.07 in 10.0 mi ENE 5.8 mph - N/A   Clear
10:53 PM 45.0 °F 41.2 °F 39.9 °F 82% 30.05 in 10.0 mi ENE 6.9 mph - N/A   Clear
11:53 PM 44.1 °F 40.8 °F 39.9 °F 85% 30.04 in 10.0 mi NE 5.8 mph - N/A   Partly Cloudy